Погода в Репьёвке

Россия / Воронежская область     51°04′34″N   38°38′27″E
темп.,
°C
ветер,
м/с
пор.,
м/с
влажн.,
%
обл.,
%
осадки,
мм/ч
давл.,
гПа
погр.,
м
22 октября, пт
пт2200:00+12юз9185663 0.0 1009782
03:00+10юз917677 0.0 1008666
06:00+10юз91781100 0.0 1007576
09:00+11юз8157999 0.0 1008584
12:00+16зюз9135694 0.0 10091020
15:00+16зюз7135199 0.0 10091290
18:00+13юз512584 0.0 1011310
21:00+11зюз614575 0.0 1012377
23 октября, сб
сб2300:00+10юз412595 0.0 1013262
03:00+10юз51260100 0.0 1013346
06:00+10юз4106234 0.0 1013270
09:00+11ююз3762100 0.0 1013254
12:00+15зюз71241100 0.0 10121446
15:00+15зюз81343100 0.0 10122056
18:00+12з5104272 0.0 1013353
21:00+8з410592 0.0 1015305
24 октября, вс
вс2400:00+5з410675 0.0 1016285
03:00+3з49855 0.0 1017269
06:00+2зюз358614 0.0 1018104
09:00+5зюз6106599 0.0 1018448
12:00+9з68465 0.0 10181402
15:00+10з684179 0.0 10171869
18:00+7зсз695699 0.0 1018852
21:00+3зсз5895100 0.4 1019567
25 октября, пн
пн2500:00+3ссз7119398 0.9 1020768
03:00+1ссз7127765 0.9 1022699
06:00+1ссз6117496 0.0 1024854
09:00+1ссз797193 0.0 1027992
12:00+2с6859100 0.0 10291171
15:00+4с574992 0.0 10301315
18:00+1с3463100 0.0 103276
21:000с226599 0.0 103334
26 октября, вт
вт2600:00−1с11660 0.0 103410
03:00−2з11670 0.0 103510
06:00−2зюз11680 0.0 103510
09:00+1юз23560 0.0 1035159
12:00+6юз34375 0.0 1034673
15:00+7юз45305 0.0 1032876
18:00+3юз3442100 0.0 103244
21:00+2юз374692 0.0 1031137